Regional Weather Roundup
Issued by NWS Green Bay, WI

Home | Current Version | Previous Version | Graphics & Text | Print | Product List | Glossary Off
Versions: 1 2 3 4 5 6 7 8 9 10 11 12 13 14 15 16 17 18 19 20 21 22 23 24 25 26 27 28 29 30 31 32 33 34 35 36 37 38 39 40 41 42 43 44 45 46 47 48 49 50

000
ASUS43 KGRB 242200
RWRGRB

NORTH-CENTRAL AND NORTHEAST WISCONSIN REGIONAL WEATHER ROUNDUP
NATIONAL WEATHER SERVICE GREEN BAY WI
500 PM CDT MON APR 24 2017

WIZ005-009-010>012-018-019-242300-
NORTH CENTRAL WISCONSIN

CITY           SKY/WX    TMP DP  RH WIND       PRES   REMARKS
IRONWOOD       MOSUNNY   66  27  23 S16G23    29.69F
MANITOWISH WTR NOT AVBL
ARBOR VITAE    NOT AVBL
EAGLE RIVER    NOT AVBL
LAND O LAKES   NOT AVBL
RHINELANDER    CLOUDY    65  33  30 SE17G24   29.77F
PHILLIPS       NOT AVBL
ANTIGO         NOT AVBL
TOMAHAWK       NOT AVBL
MERRILL        NOT AVBL
$$

WIZ013-073-242300-
NORTHEAST WISCONSIN

CITY           SKY/WX    TMP DP  RH WIND       PRES   REMARKS
IRON MOUNTAIN  CLOUDY    59  37  44 SE13      29.81F
MARINETTE      CLOUDY    50  39  66 E8        29.88F
$$

WIZ017-030-035>037-045-242300-
CENTRAL WISCONSIN

CITY           SKY/WX    TMP DP  RH WIND       PRES   REMARKS
MEDFORD        NOT AVBL
WAUSAU         MOSUNNY   66  33  29 SE17G25   29.74F
MOSINEE        PTSUNNY   66  32  28 SE14G24   29.76F
MARSHFIELD     CLOUDY    66  32  28 S17G26    29.71F
WISC RAPIDS    NOT AVBL
STEVENS POINT  NOT AVBL
WAUPACA        NOT AVBL
SHAWANO        NOT AVBL
CLINTONVILLE   NOT AVBL
WAUTOMA        MOSUNNY   71  32  23 S14G24    29.77F
$$

WIZ038-039-048-051-242300-
FOX VALLEY

CITY           SKY/WX    TMP DP  RH WIND       PRES   REMARKS
NWS GREEN BAY  CLOUDY    67  39  35 SE16      29.83F
APPLETON       PTSUNNY   66  28  24 SE12G20   29.80F
OSHKOSH        CLOUDY    70  42  36 SE17G24   29.80F
FOND DU LAC    CLOUDY    68  35  29 SE17      29.81F
$$

WIZ022-050-052-242300-
EAST CENTRAL WISCONSIN

CITY           SKY/WX    TMP DP  RH WIND       PRES   REMARKS
EPHRAIM        NOT AVBL
WASHINGTON ISL NOT AVBL
STURGEON BAY   CLOUDY    50  38  63 E9        29.88F
MANITOWOC      NOT AVBL
SHEBOYGAN      CLOUDY    62  33  33 S14       29.86F
$$

LMZ563-521-522-541>543-242300-
LAKESHORE

STATION/POSITION TIME  TEMP    WIND        PRES    VSBY  WAVE
                       AIR SEA DIR/SP/G                  HT/PER
                 (UTC) (F)     (DEG/KT/KT) (MB)    (MI)  (FT/S)
SHEBOYGAN LKSHOR 2100   45     160/  9/ 10 1012.3F
KEWAUNEE LKSHORE 2130   43      70/  4/  6 1011.7F
NORTHPORT PIER   2140   40      80/  7/ 11 1012.5F
N MID LAKE BUOY  2050   40 37   80/ 10/ 12 1014.6F         1/ 3
SISTER BAY LKSHO 2106   51     120/ 12/ 15   N/A
CHAMBERS ISLAND  2140   47      60/  7/  8 1011.5F
MENOMINEE LKSHOR 2130   44      50/  5/  6 1011.1F
$$



USA.gov is the U.S. government's official web portal to all federal, state and local government web resources and services.